Location: Wiler
(46.4041°N, 7.7840°E)
Time: 06:28:33
(UTC+00:00)

Cosmos 2360 Rocket - Pass Details

Date: 09 April 2020
Orbit: 834 x 845 km, 71.0° (Epoch: 02 June)

Event Time Altitude Azimuth Distance (km) Brightness Sun altitude
Rises 23:13:34 0° 334° (NNW) 3,393 6.2 -35.4°
Reaches altitude 10° 23:16:02 10° 337° (NNW) 2,457 5.3 -35.5°
Enters shadow 23:19:26 38° 347° (NNW) 1,269 3.4 -35.5°
